Weather History for Zapata, TX

Change the Weather History Date:

Sunday, December 9, 2012

  Actual Average (KLRD) Record (KLRD)
Temperature  
Mean Temperature 72 °F 58 °F  
Max Temperature 80 °F 69 °F 88 °F (2004)
Min Temperature 61 °F 48 °F 26 °F (1917)
Degree Days  
Heating Degree Days 0 8  
Month to date heating degree days 67  
Since 1 July heating degree days 182  
Cooling Degree Days 6 1  
Month to date cooling degree days 13  
Year to date cooling degree days 4268  
Growing Degree Days 22 (Base 50)    
Moisture  
Dew Point 67 °F    
Average Humidity 82    
Maximum Humidity 99    
Minimum Humidity 60    
Precipitation  
Precipitation 0.00 in 0.03 in 1.29 in (1982)
Month to date precipitation 0.22  
Year to date precipitation 19.54  
Sea Level Pressure  
Sea Level Pressure 29.81 in    
Wind  
Wind Speed 6 mph (SSE)    
Max Wind Speed 10 mph    
Max Gust Speed -    
Visibility 5 miles    
Events      
T = Trace of Precipitation, MM = Missing Value Source: NWS Daily Summary

Daily Weather History Graph

Daily Weather History Graph

Search for Another Location

Airport:

Trip Planner

Search our weather history database for the weather conditions in past years. The results will help you decide how hot, cold, wet, or windy it might be!

Date:

Astronomy

Dec. 09, 2012 Rise Set
Actual Time 7:15 AM CST 5:44 PM CST
Civil Twilight 6:49 AM CST 6:09 PM CST
Nautical Twilight 6:20 AM CST 6:38 PM CST
Astronomical Twilight 5:52 AM CST 7:06 PM CST
Moon 3:06 AM CST (12/9) 2:38 PM CST (12/9)
Length of Visible Light 11h 19m
Length of Day
10h 29m
Waning Crescent, 18% of the Moon is Illuminated
Dec 9
Waning Crescent
Dec 13
New
Dec 19
First Quarter
Dec 28
Full
Jan 4
Last Quarter

Hourly Weather History & Observations

Time (CST) Temp. Heat Index Dew Point Humidity Pressure Visibility Wind Dir Wind Speed Gust Speed Precip Events Conditions
12:15 AM 72.0 °F - 68.5 °F 89% 29.82 in 7.0 mi SE 6.9 mph - N/A   Mostly Cloudy
12:35 AM 72.1 °F - 68.9 °F 89% 29.82 in 7.0 mi SSE 8.1 mph - N/A   Overcast
1:15 AM 72.1 °F - 68.9 °F 89% 29.81 in 7.0 mi SE 8.1 mph - N/A   Overcast
1:35 AM 72.0 °F - 69.1 °F 91% 29.81 in 7.0 mi SE 5.8 mph - N/A   Overcast
1:55 AM 72.0 °F - 69.3 °F 91% 29.80 in 7.0 mi SSE 8.1 mph - N/A   Overcast
2:15 AM 72.0 °F - 69.4 °F 92% 29.80 in 5.0 mi SE 9.2 mph - N/A   Overcast
2:35 AM 71.8 °F - 69.8 °F 93% 29.79 in 5.0 mi SE 6.9 mph - N/A   Overcast
2:55 AM 71.8 °F - 69.8 °F 93% 29.79 in 5.0 mi SSE 10.4 mph - N/A   Overcast
3:15 AM 71.8 °F - 69.8 °F 93% 29.79 in 5.0 mi SSE 9.2 mph - N/A   Overcast
3:35 AM 71.8 °F - 70.0 °F 94% 29.80 in 5.0 mi SSE 9.2 mph - N/A   Overcast
3:55 AM 71.8 °F - 70.0 °F 94% 29.80 in 5.0 mi SSE 6.9 mph - N/A   Overcast
4:15 AM 71.6 °F - 70.2 °F 95% 29.81 in 5.0 mi South 6.9 mph - N/A   Overcast
4:55 AM 71.2 °F - 70.0 °F 96% 29.81 in 4.0 mi SSE 3.5 mph - N/A   Overcast
5:15 AM 71.2 °F - 70.0 °F 96% 29.81 in 4.0 mi SSE 3.5 mph - N/A   Overcast
5:35 AM 71.1 °F - 70.0 °F 96% 29.81 in 4.0 mi SSE 4.6 mph - N/A   Overcast
5:55 AM 70.9 °F - 70.0 °F 97% 29.82 in 3.0 mi SSE 4.6 mph - N/A   Overcast
6:15 AM 70.7 °F - 69.8 °F 97% 29.82 in 3.0 mi SE 4.6 mph - N/A   Overcast
6:35 AM 70.7 °F - 69.8 °F 97% 29.82 in 3.0 mi SSE 3.5 mph - N/A   Overcast
6:55 AM 70.2 °F - 69.8 °F 99% 29.83 in 2.5 mi Calm Calm - N/A   Overcast
7:15 AM 69.8 °F - 69.4 °F 99% 29.84 in 2.5 mi Calm Calm - N/A   Overcast
7:35 AM 69.1 °F - 68.9 °F 99% 29.84 in 1.2 mi ESE 3.5 mph - N/A   Mostly Cloudy
7:55 AM 69.8 °F - 69.4 °F 99% 29.85 in 1.2 mi ESE 3.5 mph - N/A   Mostly Cloudy
8:35 AM 70.7 °F - 70.3 °F 99% 29.87 in 1.5 mi Calm Calm - N/A   Overcast
8:55 AM 71.2 °F - 70.5 °F 98% 29.87 in 2.0 mi SSE 4.6 mph - N/A   Overcast
9:35 AM 74.5 °F - 69.1 °F 83% 29.89 in 4.0 mi SE 9.2 mph - N/A   Haze
9:55 AM 75.0 °F - 68.5 °F 80% 29.89 in 5.0 mi SE 4.6 mph - N/A   Haze
10:15 AM 76.1 °F - 68.4 °F 77% 29.89 in 5.0 mi SSE 6.9 mph - N/A   Haze
10:35 AM 77.7 °F - 67.6 °F 71% 29.89 in 5.0 mi SSE 9.2 mph - N/A   Haze
10:55 AM 77.2 °F - 67.6 °F 72% 29.87 in 5.0 mi SE 9.2 mph - N/A   Haze
11:15 AM 77.2 °F - 67.6 °F 72% 29.87 in 5.0 mi SSE 6.9 mph - N/A   Haze
11:35 AM 77.9 °F - 67.3 °F 70% 29.86 in 7.0 mi South 8.1 mph - N/A   Clear
11:55 AM 77.9 °F - 66.9 °F 69% 29.85 in 7.0 mi SSE 8.1 mph - N/A   Scattered Clouds
12:15 PM 78.3 °F - 66.9 °F 68% 29.84 in 7.0 mi SE 6.9 mph - N/A   Scattered Clouds
12:35 PM 77.9 °F - 67.1 °F 69% 29.83 in 7.0 mi SE 8.1 mph - N/A   Scattered Clouds
12:55 PM 79.0 °F - 66.9 °F 66% 29.81 in 7.0 mi SSE 6.9 mph - N/A   Clear
1:15 PM 80.2 °F 82.5 °F 66.7 °F 63% 29.81 in 7.0 mi SE 4.6 mph - N/A   Clear
1:35 PM 78.8 °F - 66.4 °F 66% 29.80 in 7.0 mi SSE 3.5 mph - N/A   Clear
1:55 PM 79.7 °F - 66.7 °F 64% 29.79 in 7.0 mi SSE 4.6 mph - N/A   Clear
2:15 PM 79.9 °F - 66.4 °F 63% 29.77 in 7.0 mi ESE 6.9 mph - N/A   Clear
2:35 PM 80.8 °F 82.8 °F 65.8 °F 60% 29.77 in 7.0 mi SE 4.6 mph - N/A   Clear
2:55 PM 80.8 °F 82.8 °F 65.7 °F 60% 29.77 in 7.0 mi SE 8.1 mph - N/A   Clear
3:15 PM 79.7 °F - 65.7 °F 62% 29.77 in 7.0 mi SSE 5.8 mph - N/A   Clear
3:35 PM 79.5 °F - 65.5 °F 62% 29.77 in 7.0 mi South 5.8 mph - N/A   Clear
3:55 PM 79.5 °F - 66.0 °F 63% 29.77 in 7.0 mi SW 4.6 mph - N/A   Clear
4:15 PM 79.0 °F - 65.5 °F 63% 29.77 in 7.0 mi SSW 5.8 mph - N/A   Clear
4:35 PM 78.4 °F - 65.8 °F 65% 29.76 in 7.0 mi South 5.8 mph - N/A   Clear
4:55 PM 78.1 °F - 65.8 °F 66% 29.76 in 7.0 mi South 3.5 mph - N/A   Clear
5:15 PM 77.9 °F - 65.7 °F 66% 29.76 in 7.0 mi SSW 3.5 mph - N/A   Clear
5:35 PM 77.2 °F - 65.7 °F 67% 29.76 in 7.0 mi Calm Calm - N/A   Clear
5:55 PM 75.6 °F - 65.7 °F 71% 29.77 in 7.0 mi South 3.5 mph - N/A   Clear
6:15 PM 75.2 °F - 65.5 °F 72% 29.77 in 7.0 mi Calm Calm - N/A   Clear
7:15 PM 71.2 °F - 65.1 °F 81% 29.78 in 7.0 mi Calm Calm - N/A   Clear
7:35 PM 70.9 °F - 64.8 °F 81% 29.79 in 7.0 mi Calm Calm - N/A   Clear
7:55 PM 70.3 °F - 64.8 °F 82% 29.79 in 7.0 mi Calm Calm - N/A   Clear
8:35 PM 70.0 °F - 64.4 °F 82% 29.80 in 7.0 mi West 3.5 mph - N/A   Clear
8:55 PM 69.4 °F - 64.4 °F 84% 29.79 in 7.0 mi Calm Calm - N/A   Clear
9:15 PM 69.1 °F - 64.4 °F 85% 29.80 in 7.0 mi Calm Calm - N/A   Clear
9:35 PM 69.1 °F - 64.4 °F 85% 29.80 in 7.0 mi Calm Calm - N/A   Clear
9:55 PM 68.0 °F - 63.9 °F 87% 29.80 in 5.0 mi Calm Calm - N/A   Clear
10:15 PM 66.7 °F - 63.5 °F 89% 29.81 in 5.0 mi Calm Calm - N/A   Clear
10:35 PM 66.2 °F - 63.7 °F 92% 29.81 in 4.0 mi Calm Calm - N/A   Clear
10:55 PM 63.9 °F - 62.6 °F 96% 29.80 in 3.0 mi ESE 5.8 mph - N/A   Clear
11:15 PM 65.3 °F - 64.4 °F 97% 29.81 in 4.0 mi ESE 3.5 mph - N/A   Clear
11:35 PM 63.3 °F - 62.6 °F 97% 29.80 in 2.5 mi Calm Calm - N/A   Clear
11:55 PM 61.9 °F - 61.3 °F 98% 29.80 in 2.5 mi Calm Calm - N/A   Clear